Previsão horária em Abobo Baoule

Hoje, 27 Janeiro, Quarta-feira

Tempo Temperatura Precipitação Vento Pressão Humidade
00:00 +27°C° 0 mm 2 m/s 751 mmHg 83%
01:00 +27°C° 0 mm 2 m/s 751 mmHg 85%
02:00 +27°C° 0 mm 2 m/s 750 mmHg 87%
03:00 +27°C° 0 mm 1 m/s 750 mmHg 89%
04:00 +26°C° 0 mm 1 m/s 750 mmHg 89%
05:00 +26°C° 0 mm 1 m/s 751 mmHg 89%
06:00 +26°C° 0 mm 1 m/s 751 mmHg 90%
07:00 +28°C° 0 mm 1 m/s 751 mmHg 83%
08:00 +29°C° 0 mm 1 m/s 752 mmHg 76%
09:00 +30°C° 0 mm 1 m/s 752 mmHg 69%
10:00 +31°C° 0 mm 2 m/s 752 mmHg 65%
11:00 +34°C° 0 mm 2 m/s 752 mmHg 60%
12:00 +35°C° 0 mm 2 m/s 751 mmHg 55%
13:00 +34°C° 0.6 mm 2 m/s 751 mmHg 56%
14:00 +34°C° 0.6 mm 3 m/s 750 mmHg 56%
15:00 +34°C° 0.6 mm 3 m/s 749 mmHg 57%
16:00 +33°C° 0 mm 3 m/s 750 mmHg 61%
17:00 +31°C° 0 mm 3 m/s 750 mmHg 65%
18:00 +30°C° 0 mm 4 m/s 750 mmHg 68%
19:00 +29°C° 0 mm 4 m/s 750 mmHg 72%
20:00 +29°C° 0 mm 4 m/s 751 mmHg 76%
21:00 +28°C° 0 mm 4 m/s 751 mmHg 80%
22:00 +28°C° 0 mm 3 m/s 751 mmHg 82%
23:00 +27°C° 0 mm 3 m/s 751 mmHg 84%

Amanhã, 28 Janeiro, Quinta-feira

Tempo Temperatura Precipitação Vento Pressão Humidade
00:00 +27°C° 0 mm 2 m/s 751 mmHg 86%
01:00 +27°C° 0 mm 2 m/s 750 mmHg 87%
02:00 +27°C° 0 mm 2 m/s 750 mmHg 89%
03:00 +26°C° 0 mm 2 m/s 750 mmHg 90%
04:00 +27°C° 0.1 mm 2 m/s 750 mmHg 90%
05:00 +27°C° 0.1 mm 2 m/s 750 mmHg 89%
06:00 +27°C° 0.1 mm 2 m/s 751 mmHg 89%
07:00 +28°C° 0 mm 2 m/s 751 mmHg 83%
08:00 +29°C° 0 mm 2 m/s 752 mmHg 77%
09:00 +30°C° 0 mm 2 m/s 753 mmHg 72%
10:00 +30°C° 0.2 mm 2 m/s 752 mmHg 70%
11:00 +30°C° 0.2 mm 2 m/s 752 mmHg 69%
12:00 +31°C° 0.2 mm 2 m/s 752 mmHg 67%
13:00 +31°C° 0.5 mm 2 m/s 751 mmHg 65%
14:00 +32°C° 0.5 mm 2 m/s 751 mmHg 63%
15:00 +32°C° 0.5 mm 2 m/s 750 mmHg 60%
16:00 +31°C° 0.2 mm 2 m/s 750 mmHg 64%
17:00 +30°C° 0.2 mm 2 m/s 750 mmHg 69%
18:00 +29°C° 0.2 mm 2 m/s 750 mmHg 73%
19:00 +29°C° 0 mm 2 m/s 751 mmHg 76%
20:00 +28°C° 0 mm 2 m/s 751 mmHg 80%
21:00 +27°C° 0 mm 2 m/s 752 mmHg 83%
22:00 +27°C° 0 mm 2 m/s 752 mmHg 84%
23:00 +27°C° 0 mm 3 m/s 752 mmHg 84%

Depois de amanhã, 29 Janeiro, Sexta-feira

Tempo Temperatura Precipitação Vento Pressão Humidade
00:00 +27°C° 0 mm 3 m/s 752 mmHg 85%
01:00 +27°C° 0 mm 3 m/s 751 mmHg 86%
02:00 +27°C° 0 mm 3 m/s 751 mmHg 88%
03:00 +26°C° 0 mm 2 m/s 750 mmHg 89%
04:00 +26°C° 0 mm 2 m/s 751 mmHg 89%
05:00 +26°C° 0 mm 2 m/s 751 mmHg 90%
06:00 +26°C° 0 mm 2 m/s 751 mmHg 90%
07:00 +27°C° 0 mm 2 m/s 752 mmHg 84%
08:00 +29°C° 0 mm 2 m/s 752 mmHg 77%
09:00 +30°C° 0 mm 2 m/s 753 mmHg 71%
10:00 +31°C° 0 mm 2 m/s 753 mmHg 67%
11:00 +33°C° 0 mm 3 m/s 752 mmHg 62%
12:00 +33°C° 0 mm 3 m/s 752 mmHg 58%
13:00 +33°C° 0.2 mm 3 m/s 752 mmHg 59%
14:00 +33°C° 0.2 mm 3 m/s 751 mmHg 60%
15:00 +33°C° 0.2 mm 3 m/s 751 mmHg 60%
16:00 +31°C° 0.2 mm 3 m/s 751 mmHg 64%
17:00 +30°C° 0.2 mm 3 m/s 751 mmHg 68%
18:00 +29°C° 0.2 mm 3 m/s 751 mmHg 72%
19:00 +29°C° 0 mm 3 m/s 751 mmHg 75%
20:00 +28°C° 0 mm 3 m/s 752 mmHg 79%
21:00 +27°C° 0 mm 3 m/s 752 mmHg 82%
22:00 +27°C° 0 mm 3 m/s 752 mmHg 83%
23:00 +27°C° 0 mm 3 m/s 752 mmHg 85%

30 Janeiro, Sábado

Tempo Temperatura Precipitação Vento Pressão Humidade
00:00 +27°C° 0 mm 2 m/s 752 mmHg 86%
01:00 +27°C° 0 mm 2 m/s 752 mmHg 87%
02:00 +27°C° 0 mm 2 m/s 751 mmHg 88%
03:00 +26°C° 0 mm 2 m/s 751 mmHg 90%
04:00 +26°C° 0 mm 2 m/s 751 mmHg 90%
05:00 +26°C° 0 mm 2 m/s 751 mmHg 90%
06:00 +26°C° 0 mm 1 m/s 751 mmHg 91%
07:00 +27°C° 0 mm 2 m/s 752 mmHg 84%
08:00 +29°C° 0 mm 2 m/s 752 mmHg 78%
09:00 +30°C° 0 mm 2 m/s 753 mmHg 72%
10:00 +30°C° 0 mm 2 m/s 753 mmHg 69%
11:00 +31°C° 0 mm 3 m/s 752 mmHg 66%
12:00 +33°C° 0 mm 3 m/s 752 mmHg 63%
13:00 +33°C° 0.6 mm 3 m/s 751 mmHg 63%
14:00 +33°C° 0.6 mm 3 m/s 751 mmHg 63%
15:00 +33°C° 0.6 mm 3 m/s 750 mmHg 63%
16:00 +31°C° 0.4 mm 3 m/s 750 mmHg 66%
17:00 +30°C° 0.4 mm 3 m/s 750 mmHg 69%
18:00 +29°C° 0.4 mm 3 m/s 750 mmHg 73%
19:00 +29°C° 0 mm 3 m/s 751 mmHg 76%
20:00 +28°C° 0 mm 3 m/s 751 mmHg 79%
21:00 +27°C° 0 mm 3 m/s 752 mmHg 82%
22:00 +27°C° 0 mm 3 m/s 752 mmHg 83%
23:00 +27°C° 0 mm 3 m/s 752 mmHg 84%

31 Janeiro, Domingo

Tempo Temperatura Precipitação Vento Pressão Humidade
00:00 +27°C° 0 mm 3 m/s 751 mmHg 84%
01:00 +27°C° 0 mm 3 m/s 751 mmHg 85%
02:00 +27°C° 0 mm 2 m/s 751 mmHg 86%
03:00 +27°C° 0 mm 2 m/s 750 mmHg 87%
04:00 +26°C° 0 mm 2 m/s 751 mmHg 88%
05:00 +26°C° 0 mm 2 m/s 751 mmHg 89%
06:00 +26°C° 0 mm 2 m/s 751 mmHg 90%
07:00 +27°C° 0.1 mm 2 m/s 751 mmHg 85%
08:00 +28°C° 0.1 mm 2 m/s 752 mmHg 80%
09:00 +29°C° 0.1 mm 2 m/s 752 mmHg 75%
10:00 +31°C° 0.1 mm 2 m/s 752 mmHg 68%
11:00 +33°C° 0.1 mm 3 m/s 752 mmHg 62%
12:00 +34°C° 0.1 mm 3 m/s 751 mmHg 56%
13:00 +34°C° 0.6 mm 3 m/s 751 mmHg 58%
14:00 +34°C° 0.6 mm 2 m/s 750 mmHg 59%
15:00 +34°C° 0.6 mm 2 m/s 749 mmHg 61%
16:00 +33°C° 0.3 mm 3 m/s 749 mmHg 65%
17:00 +31°C° 0.3 mm 3 m/s 749 mmHg 69%
18:00 +30°C° 0.3 mm 3 m/s 750 mmHg 73%
19:00 +29°C° 0 mm 3 m/s 750 mmHg 76%
20:00 +28°C° 0 mm 3 m/s 751 mmHg 80%
21:00 +28°C° 0 mm 3 m/s 751 mmHg 84%
22:00 +27°C° 0 mm 3 m/s 751 mmHg 85%
23:00 +27°C° 0 mm 3 m/s 751 mmHg 86%

1 Fevereiro, Segunda-feira

Tempo Temperatura Precipitação Vento Pressão Humidade
00:00 +27°C° 0 mm 3 m/s 751 mmHg 87%
01:00 +27°C° 0 mm 3 m/s 751 mmHg 88%
02:00 +27°C° 0 mm 2 m/s 750 mmHg 89%
03:00 +27°C° 0 mm 2 m/s 750 mmHg 90%
04:00 +27°C° 0.1 mm 2 m/s 750 mmHg 90%
05:00 +27°C° 0.1 mm 2 m/s 751 mmHg 90%
06:00 +27°C° 0.1 mm 2 m/s 751 mmHg 90%
07:00 +27°C° 0.1 mm 2 m/s 751 mmHg 86%
08:00 +28°C° 0.1 mm 2 m/s 752 mmHg 82%
09:00 +29°C° 0.1 mm 2 m/s 752 mmHg 77%
10:00 +30°C° 0 mm 2 m/s 752 mmHg 72%
11:00 +31°C° 0 mm 2 m/s 752 mmHg 66%
12:00 +32°C° 0 mm 2 m/s 752 mmHg 60%
13:00 +34°C° 0.2 mm 2 m/s 751 mmHg 59%
14:00 +34°C° 0.2 mm 2 m/s 750 mmHg 58%
15:00 +35°C° 0.2 mm 2 m/s 750 mmHg 56%
16:00 +34°C° 0.1 mm 2 m/s 750 mmHg 60%
17:00 +31°C° 0.1 mm 2 m/s 750 mmHg 65%
18:00 +30°C° 0.1 mm 3 m/s 749 mmHg 69%
19:00 +29°C° 0 mm 3 m/s 750 mmHg 73%
20:00 +29°C° 0 mm 3 m/s 751 mmHg 77%
21:00 +28°C° 0 mm 3 m/s 751 mmHg 81%
22:00 +28°C° 0 mm 3 m/s 751 mmHg 83%
23:00 +27°C° 0 mm 3 m/s 751 mmHg 84%
Mostrar mais